Time,TemperatureF,DewpointF,PressureIn,WindDirection,WindDirectionDegrees,WindSpeedMPH,WindSpeedGustMPH,Humidity,HourlyPrecipIn,Conditions,Clouds,dailyrainin,SoftwareType,DateUTC
2013-04-14 00:00:00,79.3,71.8,29.96,ENE,68,1.7,1.7,78,0.02,,---,0.59,VWS V13.01,2013-04-14 04:00:00,
2013-04-14 00:05:00,79.1,72.0,29.95,ENE,68,0.0,0.0,79,0.02,,---,0.00,VWS V13.01,2013-04-14 04:05:00,
2013-04-14 00:10:00,78.9,71.8,29.95,ENE,68,0.0,0.0,79,0.02,,---,0.00,VWS V13.01,2013-04-14 04:10:00,
2013-04-14 00:15:00,78.9,71.8,29.95,SE,135,7.6,7.6,79,0.02,,---,0.00,VWS V13.01,2013-04-14 04:15:00,
2013-04-14 00:20:00,78.8,72.1,29.95,ESE,112,3.1,3.1,80,0.02,,---,0.00,VWS V13.01,2013-04-14 04:20:00,
2013-04-14 00:25:00,78.6,71.9,29.95,SE,135,0.0,0.0,80,0.02,,---,0.00,VWS V13.01,2013-04-14 04:25:00,
2013-04-14 00:30:00,78.6,71.9,29.95,ESE,112,2.0,2.0,80,0.02,,---,0.00,VWS V13.01,2013-04-14 04:30:00,
2013-04-14 00:35:00,78.6,71.9,29.95,East,90,0.0,0.0,80,0.02,,---,0.00,VWS V13.01,2013-04-14 04:35:00,
2013-04-14 00:40:00,78.6,71.9,29.94,ENE,68,4.2,4.2,80,0.02,,---,0.00,VWS V13.01,2013-04-14 04:40:00,
2013-04-14 00:45:00,78.6,71.9,29.95,East,90,0.0,0.0,80,0.02,,---,0.00,VWS V13.01,2013-04-14 04:45:00,
2013-04-14 00:50:00,78.6,71.9,29.95,ESE,112,2.2,2.2,80,0.00,,---,0.00,VWS V13.01,2013-04-14 04:50:00,
2013-04-14 00:55:00,78.6,71.9,29.95,ENE,68,0.0,0.0,80,0.00,,---,0.00,VWS V13.01,2013-04-14 04:55:00,
2013-04-14 01:00:00,78.6,72.3,29.95,East,90,0.0,0.0,81,0.00,,---,0.00,VWS V13.01,2013-04-14 05:00:00,
2013-04-14 01:05:00,78.6,72.3,29.94,East,90,5.8,5.8,81,0.00,,---,0.00,VWS V13.01,2013-04-14 05:05:00,
2013-04-14 01:10:00,78.6,72.3,29.94,East,90,0.0,0.0,81,0.00,,---,0.00,VWS V13.01,2013-04-14 05:10:00,
2013-04-14 01:15:00,78.6,72.3,29.94,SSE,158,0.0,0.0,81,0.00,,---,0.00,VWS V13.01,2013-04-14 05:15:00,
2013-04-14 01:20:00,78.6,72.3,29.94,SSE,158,1.7,1.7,81,0.00,,---,0.00,VWS V13.01,2013-04-14 05:20:00,
2013-04-14 01:25:00,78.4,72.1,29.94,SE,135,0.0,0.0,81,0.00,,---,0.00,VWS V13.01,2013-04-14 05:25:00,
2013-04-14 01:30:00,78.2,71.9,29.93,SE,135,0.0,0.0,81,0.00,,---,0.00,VWS V13.01,2013-04-14 05:30:00,
2013-04-14 01:35:00,78.2,71.9,29.93,SSE,158,0.0,0.0,81,0.00,,---,0.00,VWS V13.01,2013-04-14 05:35:00,
2013-04-14 01:40:00,78.0,71.7,29.93,East,90,0.0,0.0,81,0.00,,---,0.00,VWS V13.01,2013-04-14 05:40:00,
2013-04-14 01:45:00,78.0,71.7,29.93,SSE,158,1.7,1.7,81,0.00,,---,0.00,VWS V13.01,2013-04-14 05:45:00,
2013-04-14 01:50:00,78.0,71.7,29.93,ESE,112,0.0,0.0,81,0.00,,---,0.00,VWS V13.01,2013-04-14 05:50:00,
2013-04-14 01:54:00,78.0,71.7,29.92,ESE,112,2.2,2.2,81,0.00,,---,0.00,VWS V13.01,2013-04-14 05:54:00,
2013-04-14 01:59:00,78.0,71.7,29.93,SE,135,0.0,0.0,81,0.00,,---,0.00,VWS V13.01,2013-04-14 05:59:00,
2013-04-14 02:04:00,78.0,71.7,29.93,SSE,158,0.0,0.0,81,0.00,,---,0.00,VWS V13.01,2013-04-14 06:04:00,
2013-04-14 02:09:00,78.0,71.7,29.93,ESE,112,0.0,0.0,81,0.00,,---,0.00,VWS V13.01,2013-04-14 06:09:00,
2013-04-14 02:14:00,78.0,71.7,29.93,SE,135,1.3,1.3,81,0.00,,---,0.00,VWS V13.01,2013-04-14 06:14:00,
2013-04-14 02:19:00,78.0,71.7,29.93,SE,135,0.0,0.0,81,0.00,,---,0.00,VWS V13.01,2013-04-14 06:19:00,
2013-04-14 02:24:00,78.0,71.7,29.93,SE,135,0.0,0.0,81,0.00,,---,0.00,VWS V13.01,2013-04-14 06:24:00,
2013-04-14 02:29:00,78.0,71.7,29.92,SE,135,0.0,0.0,81,0.00,,---,0.00,VWS V13.01,2013-04-14 06:29:00,
2013-04-14 02:34:00,78.0,71.7,29.92,SSE,158,0.0,0.0,81,0.00,,---,0.00,VWS V13.01,2013-04-14 06:34:00,
2013-04-14 02:39:00,78.0,71.3,29.93,SSE,158,4.0,4.0,80,0.00,,---,0.00,VWS V13.01,2013-04-14 06:39:00,
2013-04-14 02:44:00,78.0,71.3,29.92,SE,135,1.3,1.3,80,0.00,,---,0.00,VWS V13.01,2013-04-14 06:44:00,
2013-04-14 02:49:00,78.0,71.3,29.92,ESE,112,2.2,2.2,80,0.00,,---,0.00,VWS V13.01,2013-04-14 06:49:00,
2013-04-14 02:54:00,78.0,71.3,29.92,SSE,158,0.0,0.0,80,0.00,,---,0.00,VWS V13.01,2013-04-14 06:54:00,
2013-04-14 02:59:00,77.9,71.2,29.92,ESE,112,1.5,1.5,80,0.00,,---,0.00,VWS V13.01,2013-04-14 06:59:00,
2013-04-14 03:04:00,77.9,71.2,29.91,ESE,112,0.0,0.0,80,0.00,,---,0.00,VWS V13.01,2013-04-14 07:04:00,
2013-04-14 03:09:00,77.9,71.2,29.91,ESE,112,0.0,0.0,80,0.00,,---,0.00,VWS V13.01,2013-04-14 07:09:00,
2013-04-14 03:14:00,77.9,71.2,29.92,SSE,158,0.0,0.0,80,0.00,,---,0.00,VWS V13.01,2013-04-14 07:14:00,
2013-04-14 03:19:00,77.9,71.2,29.92,ESE,112,0.0,0.0,80,0.00,,---,0.00,VWS V13.01,2013-04-14 07:19:00,
2013-04-14 03:24:00,77.9,71.2,29.92,ESE,112,0.0,0.0,80,0.00,,---,0.00,VWS V13.01,2013-04-14 07:24:00,
2013-04-14 03:29:00,77.9,71.2,29.92,SE,135,0.0,0.0,80,0.00,,---,0.00,VWS V13.01,2013-04-14 07:29:00,
2013-04-14 03:34:00,77.7,71.0,29.92,SSW,202,0.0,0.0,80,0.00,,---,0.00,VWS V13.01,2013-04-14 07:34:00,
2013-04-14 03:39:00,77.9,71.2,29.92,SE,135,0.0,0.0,80,0.00,,---,0.00,VWS V13.01,2013-04-14 07:39:00,
2013-04-14 03:44:00,77.9,71.2,29.91,East,90,1.7,1.7,80,0.00,,---,0.00,VWS V13.01,2013-04-14 07:44:00,
2013-04-14 03:49:00,77.7,71.0,29.91,SSE,158,0.8,0.8,80,0.00,,---,0.00,VWS V13.01,2013-04-14 07:49:00,
2013-04-14 03:54:00,77.7,71.0,29.91,SE,135,0.0,0.0,80,0.00,,---,0.00,VWS V13.01,2013-04-14 07:54:00,
2013-04-14 03:59:00,77.7,71.0,29.92,SE,135,0.0,0.0,80,0.00,,---,0.00,VWS V13.01,2013-04-14 07:59:00,
2013-04-14 04:04:00,77.7,71.0,29.91,SSE,158,0.0,0.0,80,0.00,,---,0.00,VWS V13.01,2013-04-14 08:04:00,
2013-04-14 04:09:00,77.5,70.8,29.92,ESE,112,4.0,4.0,80,0.00,,---,0.00,VWS V13.01,2013-04-14 08:09:00,
2013-04-14 04:14:00,77.5,70.8,29.91,SE,135,6.9,6.9,80,0.00,,---,0.00,VWS V13.01,2013-04-14 08:14:00,
2013-04-14 04:19:00,77.5,70.8,29.91,SE,135,3.3,3.3,80,0.00,,---,0.00,VWS V13.01,2013-04-14 08:19:00,
2013-04-14 04:24:00,77.5,70.8,29.91,ESE,112,2.9,2.9,80,0.00,,---,0.00,VWS V13.01,2013-04-14 08:24:00,
2013-04-14 04:29:00,77.5,70.8,29.91,SSE,158,1.7,1.7,80,0.00,,---,0.00,VWS V13.01,2013-04-14 08:29:00,
2013-04-14 04:34:00,77.5,70.8,29.92,ESE,112,0.0,0.0,80,0.00,,---,0.00,VWS V13.01,2013-04-14 08:34:00,
2013-04-14 04:39:00,77.5,70.8,29.92,SE,135,1.7,1.7,80,0.00,,---,0.00,VWS V13.01,2013-04-14 08:39:00,
2013-04-14 04:44:00,77.5,70.8,29.92,ESE,112,3.1,3.1,80,0.00,,---,0.00,VWS V13.01,2013-04-14 08:44:00,
2013-04-14 04:49:00,77.5,70.8,29.92,SSE,158,0.0,0.0,80,0.00,,---,0.00,VWS V13.01,2013-04-14 08:49:00,
2013-04-14 04:54:00,77.5,70.8,29.93,ESE,112,0.0,0.0,80,0.00,,---,0.00,VWS V13.01,2013-04-14 08:54:00,
2013-04-14 04:59:00,77.5,70.8,29.93,SE,135,2.4,2.4,80,0.00,,---,0.00,VWS V13.01,2013-04-14 08:59:00,
2013-04-14 05:04:00,77.5,70.8,29.93,SE,135,0.0,0.0,80,0.00,,---,0.00,VWS V13.01,2013-04-14 09:04:00,
2013-04-14 05:09:00,77.5,71.2,29.93,SSE,158,0.0,0.0,81,0.00,,---,0.00,VWS V13.01,2013-04-14 09:09:00,
2013-04-14 05:14:00,77.5,70.8,29.94,SE,135,3.5,3.5,80,0.00,,---,0.00,VWS V13.01,2013-04-14 09:14:00,
2013-04-14 05:19:00,77.5,70.8,29.94,SSE,158,0.6,0.6,80,0.00,,---,0.00,VWS V13.01,2013-04-14 09:19:00,
2013-04-14 05:24:00,77.5,70.8,29.94,ESE,112,0.0,0.0,80,0.00,,---,0.00,VWS V13.01,2013-04-14 09:24:00,
2013-04-14 05:29:00,77.5,70.8,29.94,ESE,112,0.0,0.0,80,0.00,,---,0.00,VWS V13.01,2013-04-14 09:29:00,
2013-04-14 05:34:00,77.5,70.8,29.93,ESE,112,1.7,1.7,80,0.00,,---,0.00,VWS V13.01,2013-04-14 09:34:00,
2013-04-14 05:39:00,77.5,70.8,29.94,SE,135,1.3,1.3,80,0.00,,---,0.00,VWS V13.01,2013-04-14 09:39:00,
2013-04-14 05:44:00,77.5,70.8,29.94,ESE,112,0.0,0.0,80,0.00,,---,0.00,VWS V13.01,2013-04-14 09:44:00,
2013-04-14 05:49:00,77.5,70.8,29.94,ESE,112,2.0,2.0,80,0.00,,---,0.00,VWS V13.01,2013-04-14 09:49:00,
2013-04-14 05:54:00,77.5,71.2,29.94,SE,135,0.0,0.0,81,0.00,,---,0.00,VWS V13.01,2013-04-14 09:54:00,
2013-04-14 05:59:00,77.3,71.0,29.94,SE,135,0.0,0.0,81,0.00,,---,0.00,VWS V13.01,2013-04-14 09:59:00,
2013-04-14 06:04:00,77.3,71.0,29.94,SE,135,2.4,2.4,81,0.00,,---,0.00,VWS V13.01,2013-04-14 10:04:00,
2013-04-14 06:09:00,77.3,71.0,29.94,SE,135,0.0,0.0,81,0.00,,---,0.00,VWS V13.01,2013-04-14 10:09:00,
2013-04-14 06:14:00,77.3,71.0,29.94,ESE,112,0.0,0.0,81,0.00,,---,0.00,VWS V13.01,2013-04-14 10:14:00,
2013-04-14 06:19:00,77.3,71.0,29.95,SE,135,1.3,1.3,81,0.00,,---,0.00,VWS V13.01,2013-04-14 10:19:00,
2013-04-14 06:24:00,77.3,71.0,29.95,SE,135,5.8,5.8,81,0.00,,---,0.00,VWS V13.01,2013-04-14 10:24:00,
2013-04-14 06:29:00,77.3,71.0,29.95,SE,135,6.4,6.4,81,0.00,,---,0.00,VWS V13.01,2013-04-14 10:29:00,
2013-04-14 06:34:00,77.3,71.0,29.95,East,90,0.0,0.0,81,0.00,,---,0.00,VWS V13.01,2013-04-14 10:34:00,
2013-04-14 06:39:00,77.3,71.0,29.95,SE,135,7.8,7.8,81,0.00,,---,0.00,VWS V13.01,2013-04-14 10:39:00,
2013-04-14 06:44:00,77.5,71.2,29.95,SE,135,5.1,5.1,81,0.00,,---,0.00,VWS V13.01,2013-04-14 10:44:00,
2013-04-14 06:49:00,77.5,70.8,29.95,ENE,68,0.0,0.0,80,0.00,,---,0.00,VWS V13.01,2013-04-14 10:49:00,
2013-04-14 06:54:00,77.7,70.7,29.95,ESE,112,0.0,0.0,79,0.00,,---,0.00,VWS V13.01,2013-04-14 10:54:00,
2013-04-14 06:59:00,77.9,70.5,29.95,SE,135,8.9,8.9,78,0.00,,---,0.00,VWS V13.01,2013-04-14 10:59:00,
2013-04-14 07:04:00,78.0,70.6,29.96,SE,135,3.5,3.5,78,0.00,,---,0.00,VWS V13.01,2013-04-14 11:04:00,
2013-04-14 07:09:00,78.0,70.6,29.96,SSE,158,8.0,8.0,78,0.00,,---,0.00,VWS V13.01,2013-04-14 11:09:00,
2013-04-14 07:14:00,78.2,70.4,29.96,South,180,10.0,10.0,77,0.00,,---,0.00,VWS V13.01,2013-04-14 11:14:00,
2013-04-14 07:19:00,78.4,70.6,29.96,SE,135,0.0,0.0,77,0.00,,---,0.00,VWS V13.01,2013-04-14 11:19:00,
2013-04-14 07:24:00,78.6,70.8,29.96,SSE,158,5.8,5.8,77,0.00,,---,0.00,VWS V13.01,2013-04-14 11:24:00,
2013-04-14 07:29:00,78.6,70.4,29.96,SE,135,4.2,4.2,76,0.00,,---,0.00,VWS V13.01,2013-04-14 11:29:00,
2013-04-14 07:34:00,78.8,70.6,29.96,SE,135,0.0,0.0,76,0.00,,---,0.00,VWS V13.01,2013-04-14 11:34:00,
2013-04-14 07:39:00,78.9,70.7,29.96,SSE,158,6.7,6.7,76,0.00,,---,0.00,VWS V13.01,2013-04-14 11:39:00,
2013-04-14 07:44:00,79.3,71.1,29.96,SSE,158,3.1,3.1,76,0.00,,---,0.00,VWS V13.01,2013-04-14 11:44:00,
2013-04-14 07:49:00,79.5,71.3,29.96,SSE,158,2.2,2.2,76,0.00,,---,0.00,VWS V13.01,2013-04-14 11:49:00,
2013-04-14 07:54:00,79.8,71.2,29.96,SE,135,0.0,0.0,75,0.00,,---,0.00,VWS V13.01,2013-04-14 11:54:00,
2013-04-14 07:59:00,80.2,71.6,29.96,SE,135,3.1,3.1,75,0.00,,---,0.00,VWS V13.01,2013-04-14 11:59:00,
2013-04-14 08:04:00,80.2,71.6,29.97,South,180,0.0,4.6,75,0.00,,---,0.00,VWS V13.01,2013-04-14 12:04:00,
2013-04-14 08:09:00,80.4,71.8,29.97,SE,135,0.0,0.0,75,0.00,,---,0.00,VWS V13.01,2013-04-14 12:09:00,
2013-04-14 08:14:00,80.6,71.9,29.98,South,180,3.8,3.8,75,0.00,,---,0.00,VWS V13.01,2013-04-14 12:14:00,
2013-04-14 08:19:00,80.7,71.7,29.98,SSE,158,0.8,0.8,74,0.00,,---,0.00,VWS V13.01,2013-04-14 12:19:00,
2013-04-14 08:24:00,81.1,72.0,29.98,SE,135,2.0,2.0,74,0.00,,---,0.00,VWS V13.01,2013-04-14 12:24:00,
2013-04-14 08:29:00,81.3,72.2,29.98,East,90,3.1,3.1,74,0.00,,---,0.00,VWS V13.01,2013-04-14 12:29:00,
2013-04-14 08:34:00,81.5,72.0,29.98,South,180,8.0,8.0,73,0.00,,---,0.00,VWS V13.01,2013-04-14 12:34:00,
2013-04-14 08:39:00,81.6,71.7,29.98,ESE,112,4.9,4.9,72,0.00,,---,0.00,VWS V13.01,2013-04-14 12:39:00,
2013-04-14 08:44:00,82.0,71.7,29.98,ESE,112,0.0,0.0,71,0.00,,---,0.00,VWS V13.01,2013-04-14 12:44:00,
2013-04-14 08:49:00,82.2,71.9,29.97,ENE,68,0.0,0.0,71,0.00,,---,0.00,VWS V13.01,2013-04-14 12:49:00,
2013-04-14 08:54:00,82.5,71.7,29.98,SE,135,4.6,4.6,70,0.00,,---,0.00,VWS V13.01,2013-04-14 12:54:00,
2013-04-14 08:59:00,82.7,71.9,29.98,ESE,112,0.8,0.8,70,0.00,,---,0.00,VWS V13.01,2013-04-14 12:59:00,
2013-04-14 09:04:00,82.9,71.7,29.98,ESE,112,2.2,2.2,69,0.00,,---,0.00,VWS V13.01,2013-04-14 13:04:00,
2013-04-14 09:09:00,83.1,71.4,29.98,ESE,112,6.2,6.2,68,0.00,,---,0.00,VWS V13.01,2013-04-14 13:09:00,
2013-04-14 09:14:00,83.3,71.6,29.98,East,90,4.9,4.9,68,0.00,,---,0.00,VWS V13.01,2013-04-14 13:14:00,
2013-04-14 09:19:00,83.4,71.3,29.98,SE,135,0.0,0.0,67,0.00,,---,0.00,VWS V13.01,2013-04-14 13:19:00,
2013-04-14 09:24:00,83.6,71.5,29.98,ESE,112,6.0,6.0,67,0.00,,---,0.00,VWS V13.01,2013-04-14 13:24:00,
2013-04-14 09:29:00,83.8,70.8,29.98,SSE,158,4.9,4.9,65,0.00,,---,0.00,VWS V13.01,2013-04-14 13:29:00,
2013-04-14 09:34:00,84.0,71.0,29.98,SE,135,0.8,0.8,65,0.00,,---,0.00,VWS V13.01,2013-04-14 13:34:00,
2013-04-14 09:39:00,84.3,71.3,29.98,SE,135,4.2,4.2,65,0.00,,---,0.00,VWS V13.01,2013-04-14 13:39:00,
2013-04-14 09:44:00,84.5,71.4,29.98,SE,135,12.3,12.3,65,0.00,,---,0.00,VWS V13.01,2013-04-14 13:44:00,
2013-04-14 09:49:00,84.7,71.2,29.98,SSE,158,7.1,7.1,64,0.00,,---,0.00,VWS V13.01,2013-04-14 13:49:00,
2013-04-14 09:54:00,84.7,71.2,29.98,SSE,158,8.5,8.5,64,0.00,,---,0.00,VWS V13.01,2013-04-14 13:54:00,
2013-04-14 09:59:00,84.7,71.2,29.98,ENE,68,5.1,5.1,64,0.00,,---,0.00,VWS V13.01,2013-04-14 13:59:00,
2013-04-14 10:04:00,84.9,71.8,29.98,SE,135,3.5,3.5,65,0.00,,---,0.00,VWS V13.01,2013-04-14 14:04:00,
2013-04-14 10:09:00,85.1,71.6,29.98,ESE,112,3.3,3.3,64,0.00,,---,0.00,VWS V13.01,2013-04-14 14:09:00,
2013-04-14 10:14:00,85.2,72.1,29.98,SSW,202,2.9,2.9,65,0.00,,---,0.00,VWS V13.01,2013-04-14 14:14:00,
2013-04-14 10:19:00,85.6,72.5,29.99,ENE,68,10.2,10.2,65,0.00,,---,0.00,VWS V13.01,2013-04-14 14:19:00,
2013-04-14 10:24:00,86.1,72.5,29.98,NE,45,2.2,2.2,64,0.00,,---,0.00,VWS V13.01,2013-04-14 14:24:00,
2013-04-14 10:29:00,86.1,72.5,29.98,SE,135,5.8,5.8,64,0.00,,---,0.00,VWS V13.01,2013-04-14 14:29:00,
2013-04-14 10:34:00,86.5,72.4,29.98,SSE,158,2.4,2.4,63,0.00,,---,0.00,VWS V13.01,2013-04-14 14:34:00,
2013-04-14 10:39:00,86.7,72.6,29.99,SSE,158,2.4,2.4,63,0.00,,---,0.00,VWS V13.01,2013-04-14 14:39:00,
2013-04-14 10:44:00,87.0,72.9,29.99,ENE,68,2.9,2.9,63,0.00,,---,0.00,VWS V13.01,2013-04-14 14:44:00,
2013-04-14 10:49:00,86.9,72.8,29.99,ENE,68,12.9,12.9,63,0.00,,---,0.00,VWS V13.01,2013-04-14 14:49:00,
2013-04-14 10:54:00,86.7,72.6,29.98,ENE,68,0.0,0.0,63,0.00,,---,0.00,VWS V13.01,2013-04-14 14:54:00,
2013-04-14 10:59:00,86.9,72.8,29.99,ENE,68,6.9,6.9,63,0.00,,---,0.00,VWS V13.01,2013-04-14 14:59:00,
2013-04-14 11:04:00,86.7,72.6,29.98,ENE,68,3.5,3.5,63,0.00,,---,0.00,VWS V13.01,2013-04-14 15:04:00,
2013-04-14 11:09:00,86.7,73.1,29.98,ESE,112,0.0,0.0,64,0.00,,---,0.00,VWS V13.01,2013-04-14 15:09:00,
2013-04-14 11:14:00,86.5,72.9,29.98,ESE,112,9.8,9.8,64,0.00,,---,0.00,VWS V13.01,2013-04-14 15:14:00,
2013-04-14 11:19:00,86.5,72.9,29.98,NNE,22,6.7,6.7,64,0.00,,---,0.00,VWS V13.01,2013-04-14 15:19:00,
2013-04-14 11:24:00,86.3,72.2,29.98,SE,135,4.2,4.2,63,0.00,,---,0.00,VWS V13.01,2013-04-14 15:24:00,
2013-04-14 11:29:00,86.1,72.5,29.98,NNE,22,0.0,0.0,64,0.00,,---,0.00,VWS V13.01,2013-04-14 15:29:00,
2013-04-14 11:34:00,86.1,72.5,29.98,ENE,68,7.6,7.6,64,0.00,,---,0.00,VWS V13.01,2013-04-14 15:34:00,
2013-04-14 11:39:00,86.5,72.4,29.98,NE,45,6.2,6.2,63,0.00,,---,0.00,VWS V13.01,2013-04-14 15:39:00,
2013-04-14 11:44:00,86.7,72.6,29.98,East,90,3.8,3.8,63,0.00,,---,0.00,VWS V13.01,2013-04-14 15:44:00,
2013-04-14 11:49:00,86.7,72.6,29.98,ESE,112,2.9,2.9,63,0.00,,---,0.00,VWS V13.01,2013-04-14 15:49:00,
2013-04-14 11:54:00,86.3,73.2,29.98,East,90,5.3,5.3,65,0.00,,---,0.00,VWS V13.01,2013-04-14 15:54:00,
2013-04-14 11:59:00,86.1,73.0,29.98,East,90,8.9,8.9,65,0.00,,---,0.00,VWS V13.01,2013-04-14 15:59:00,
2013-04-14 12:04:00,85.8,72.7,29.98,SE,135,7.1,7.1,65,0.00,,---,0.00,VWS V13.01,2013-04-14 16:04:00,
2013-04-14 12:09:00,86.1,72.5,29.98,ENE,68,22.5,22.5,64,0.00,,---,0.00,VWS V13.01,2013-04-14 16:09:00,
2013-04-14 12:14:00,85.8,72.7,29.98,ENE,68,9.1,9.1,65,0.00,,---,0.00,VWS V13.01,2013-04-14 16:14:00,
2013-04-14 12:19:00,85.8,72.7,29.97,East,90,9.6,9.6,65,0.00,,---,0.00,VWS V13.01,2013-04-14 16:19:00,
2013-04-14 12:24:00,86.1,72.5,29.98,East,90,6.9,6.9,64,0.00,,---,0.00,VWS V13.01,2013-04-14 16:24:00,
2013-04-14 12:29:00,86.1,73.0,29.98,East,90,7.6,7.6,65,0.00,,---,0.00,VWS V13.01,2013-04-14 16:29:00,
2013-04-14 12:34:00,86.5,73.3,29.97,ENE,68,10.5,10.5,65,0.00,,---,0.00,VWS V13.01,2013-04-14 16:34:00,
2013-04-14 12:39:00,86.3,73.2,29.96,ENE,68,11.8,11.8,65,0.00,,---,0.00,VWS V13.01,2013-04-14 16:39:00,
2013-04-14 12:44:00,86.3,72.7,29.96,NE,45,10.9,10.9,64,0.00,,---,0.00,VWS V13.01,2013-04-14 16:44:00,
2013-04-14 12:49:00,86.3,72.7,29.96,ENE,68,10.2,10.2,64,0.00,,---,0.00,VWS V13.01,2013-04-14 16:49:00,
2013-04-14 12:54:00,86.5,72.4,29.96,East,90,9.3,9.3,63,0.00,,---,0.00,VWS V13.01,2013-04-14 16:54:00,
2013-04-14 12:59:00,87.0,72.9,29.96,ENE,68,2.9,2.9,63,0.00,,---,0.00,VWS V13.01,2013-04-14 16:59:00,
2013-04-14 13:04:00,87.2,72.6,29.96,ENE,68,10.9,10.9,62,0.00,,---,0.00,VWS V13.01,2013-04-14 17:04:00,
2013-04-14 13:09:00,87.6,72.5,29.96,NE,45,8.9,8.9,61,0.00,,---,0.00,VWS V13.01,2013-04-14 17:09:00,
2013-04-14 13:14:00,87.9,72.8,29.96,ESE,112,6.4,6.4,61,0.00,,---,0.00,VWS V13.01,2013-04-14 17:14:00,
2013-04-14 13:19:00,88.5,73.8,29.96,ENE,68,10.0,10.0,62,0.00,,---,0.00,VWS V13.01,2013-04-14 17:19:00,
2013-04-14 13:24:00,88.7,74.0,29.95,ESE,112,14.3,14.3,62,0.00,,---,0.00,VWS V13.01,2013-04-14 17:24:00,
2013-04-14 13:29:00,88.7,73.0,29.95,East,90,7.6,7.6,60,0.00,,---,0.00,VWS V13.01,2013-04-14 17:29:00,
2013-04-14 13:34:00,88.7,73.0,29.95,East,90,8.9,8.9,60,0.00,,---,0.00,VWS V13.01,2013-04-14 17:34:00,
2013-04-14 13:39:00,88.5,73.3,29.94,NE,45,3.8,3.8,61,0.00,,---,0.00,VWS V13.01,2013-04-14 17:39:00,
2013-04-14 13:44:00,88.7,73.5,29.95,NNE,22,5.5,5.5,61,0.00,,---,0.00,VWS V13.01,2013-04-14 17:44:00,
2013-04-14 13:49:00,88.8,73.6,29.94,ENE,68,8.2,8.2,61,0.00,,---,0.00,VWS V13.01,2013-04-14 17:49:00,
2013-04-14 13:54:00,88.8,73.1,29.94,East,90,5.8,5.8,60,0.00,,---,0.00,VWS V13.01,2013-04-14 17:54:00,
2013-04-14 13:59:00,89.2,74.0,29.94,ENE,68,5.5,5.5,61,0.00,,---,0.00,VWS V13.01,2013-04-14 17:59:00,
2013-04-14 14:04:00,89.2,74.0,29.94,ENE,68,14.5,14.5,61,0.00,,---,0.00,VWS V13.01,2013-04-14 18:04:00,
2013-04-14 14:09:00,89.2,74.0,29.93,East,90,9.8,9.8,61,0.00,,---,0.00,VWS V13.01,2013-04-14 18:09:00,
2013-04-14 14:14:00,89.4,74.2,29.93,SSE,158,11.4,11.4,61,0.00,,---,0.00,VWS V13.01,2013-04-14 18:14:00,
2013-04-14 14:19:00,89.4,74.2,29.93,ESE,112,12.3,12.3,61,0.00,,---,0.00,VWS V13.01,2013-04-14 18:19:00,
2013-04-14 14:24:00,89.4,73.7,29.93,ENE,68,15.2,15.2,60,0.00,,---,0.00,VWS V13.01,2013-04-14 18:24:00,
2013-04-14 14:29:00,89.0,73.3,29.93,NE,45,8.9,8.9,60,0.00,,---,0.00,VWS V13.01,2013-04-14 18:29:00,
2013-04-14 14:34:00,89.0,73.3,29.92,ENE,68,9.8,9.8,60,0.00,,---,0.00,VWS V13.01,2013-04-14 18:34:00,
2013-04-14 14:38:00,89.4,74.2,29.92,ENE,68,4.6,4.6,61,0.00,,---,0.00,VWS V13.01,2013-04-14 18:38:00,
2013-04-14 14:43:00,89.7,74.0,29.92,East,90,13.4,13.4,60,0.00,,---,0.00,VWS V13.01,2013-04-14 18:43:00,
2013-04-14 14:48:00,89.7,74.5,29.92,East,90,14.5,14.5,61,0.00,,---,0.00,VWS V13.01,2013-04-14 18:48:00,
2013-04-14 14:54:00,89.7,75.0,29.91,East,90,10.0,10.0,62,0.00,,---,0.00,VWS V13.01,2013-04-14 18:54:00,
2013-04-14 14:59:00,89.6,73.9,29.91,ESE,112,2.9,2.9,60,0.00,,---,0.00,VWS V13.01,2013-04-14 18:59:00,
2013-04-14 15:04:00,89.9,74.2,29.91,East,90,10.5,10.5,60,0.00,,---,0.00,VWS V13.01,2013-04-14 19:04:00,
2013-04-14 15:09:00,90.1,73.8,29.91,East,90,9.1,9.1,59,0.00,,---,0.00,VWS V13.01,2013-04-14 19:09:00,
2013-04-14 15:14:00,90.1,73.8,29.91,ENE,68,10.2,10.2,59,0.00,,---,0.00,VWS V13.01,2013-04-14 19:14:00,
2013-04-14 15:19:00,90.3,74.0,29.91,East,90,11.1,11.1,59,0.00,,---,0.00,VWS V13.01,2013-04-14 19:19:00,
2013-04-14 15:24:00,90.6,74.3,29.91,ENE,68,6.9,6.9,59,0.00,,---,0.00,VWS V13.01,2013-04-14 19:24:00,
2013-04-14 15:28:00,90.5,74.2,29.91,ENE,68,12.7,12.7,59,0.00,,---,0.00,VWS V13.01,2013-04-14 19:28:00,
2013-04-14 15:33:00,90.5,74.2,29.91,ESE,112,12.9,12.9,59,0.00,,---,0.00,VWS V13.01,2013-04-14 19:33:00,
2013-04-14 15:38:00,90.3,74.0,29.91,ENE,68,9.6,9.6,59,0.00,,---,0.00,VWS V13.01,2013-04-14 19:38:00,
2013-04-14 15:43:00,90.6,74.3,29.91,NE,45,8.9,8.9,59,0.00,,---,0.00,VWS V13.01,2013-04-14 19:43:00,
2013-04-14 15:48:00,90.3,74.0,29.92,East,90,9.3,9.3,59,0.00,,---,0.00,VWS V13.01,2013-04-14 19:48:00,
2013-04-14 15:53:00,90.3,74.0,29.91,ESE,112,5.1,5.1,59,0.00,,---,0.00,VWS V13.01,2013-04-14 19:53:00,
2013-04-14 15:58:00,90.3,74.5,29.91,ENE,68,13.6,13.6,60,0.00,,---,0.00,VWS V13.01,2013-04-14 19:58:00,
2013-04-14 16:03:00,90.1,74.3,29.91,ENE,68,9.8,9.8,60,0.00,,---,0.00,VWS V13.01,2013-04-14 20:03:00,
2013-04-14 16:08:00,90.3,74.5,29.92,East,90,14.5,14.5,60,0.00,,---,0.00,VWS V13.01,2013-04-14 20:08:00,
2013-04-14 16:13:00,90.6,75.3,29.92,East,90,7.3,7.3,61,0.00,,---,0.00,VWS V13.01,2013-04-14 20:13:00,
2013-04-14 16:18:00,90.8,75.0,29.92,ENE,68,11.8,11.8,60,0.00,,---,0.00,VWS V13.01,2013-04-14 20:18:00,
2013-04-14 16:23:00,90.8,75.0,29.92,ENE,68,5.8,5.8,60,0.00,,---,0.00,VWS V13.01,2013-04-14 20:23:00,
2013-04-14 16:28:00,91.0,75.2,29.92,ESE,112,6.2,6.2,60,0.00,,---,0.00,VWS V13.01,2013-04-14 20:28:00,
2013-04-14 16:33:00,91.0,74.7,29.92,ENE,68,12.3,12.3,59,0.00,,---,0.00,VWS V13.01,2013-04-14 20:33:00,
2013-04-14 16:38:00,91.0,74.7,29.93,NE,45,10.0,10.0,59,0.00,,---,0.00,VWS V13.01,2013-04-14 20:38:00,
2013-04-14 16:43:00,90.8,74.5,29.92,NE,45,13.4,13.4,59,0.00,,---,0.00,VWS V13.01,2013-04-14 20:43:00,
2013-04-14 16:48:00,90.6,74.3,29.92,ESE,112,4.2,4.2,59,0.00,,---,0.00,VWS V13.01,2013-04-14 20:48:00,
2013-04-14 16:53:00,90.6,74.3,29.93,East,90,6.9,6.9,59,0.00,,---,0.00,VWS V13.01,2013-04-14 20:53:00,
2013-04-14 16:58:00,90.8,74.5,29.92,ENE,68,11.8,11.8,59,0.00,,---,0.00,VWS V13.01,2013-04-14 20:58:00,
2013-04-14 17:03:00,91.0,74.7,29.92,SE,135,7.3,7.3,59,0.00,,---,0.00,VWS V13.01,2013-04-14 21:03:00,
2013-04-14 17:08:00,91.0,74.7,29.92,SE,135,0.0,0.0,59,0.00,,---,0.00,VWS V13.01,2013-04-14 21:08:00,
2013-04-14 17:13:00,90.8,74.5,29.93,East,90,9.6,9.6,59,0.00,,---,0.00,VWS V13.01,2013-04-14 21:13:00,
2013-04-14 17:18:00,90.6,74.3,29.93,NE,45,4.0,4.0,59,0.00,,---,0.00,VWS V13.01,2013-04-14 21:18:00,
2013-04-14 17:23:00,90.6,74.3,29.93,ESE,112,6.7,6.7,59,0.00,,---,0.00,VWS V13.01,2013-04-14 21:23:00,
2013-04-14 17:28:00,90.6,74.3,29.93,East,90,3.5,3.5,59,0.00,,---,0.00,VWS V13.01,2013-04-14 21:28:00,
2013-04-14 17:33:00,90.6,74.3,29.93,ENE,68,5.3,5.3,59,0.00,,---,0.00,VWS V13.01,2013-04-14 21:33:00,
2013-04-14 17:38:00,90.6,74.3,29.93,ENE,68,10.7,10.7,59,0.00,,---,0.00,VWS V13.01,2013-04-14 21:38:00,
2013-04-14 17:43:00,90.3,74.0,29.93,East,90,10.5,10.5,59,0.00,,---,0.00,VWS V13.01,2013-04-14 21:43:00,
2013-04-14 17:48:00,90.1,73.8,29.93,East,90,2.0,2.0,59,0.00,,---,0.00,VWS V13.01,2013-04-14 21:48:00,
2013-04-14 17:54:00,89.7,74.0,29.93,NE,45,0.0,0.0,60,0.00,,---,0.00,VWS V13.01,2013-04-14 21:54:00,
2013-04-14 17:59:00,89.4,73.2,29.93,NNE,22,2.4,2.4,59,0.00,,---,0.00,VWS V13.01,2013-04-14 21:59:00,
2013-04-14 18:04:00,89.2,73.5,29.93,ESE,112,0.8,0.8,60,0.00,,---,0.00,VWS V13.01,2013-04-14 22:04:00,
2013-04-14 18:09:00,89.2,73.5,29.93,ENE,68,6.9,6.9,60,0.00,,---,0.00,VWS V13.01,2013-04-14 22:09:00,
2013-04-14 18:14:00,88.8,73.6,29.93,ESE,112,12.9,12.9,61,0.00,,---,0.00,VWS V13.01,2013-04-14 22:14:00,
2013-04-14 18:19:00,88.3,73.2,29.94,East,90,1.5,1.5,61,0.00,,---,0.00,VWS V13.01,2013-04-14 22:19:00,
2013-04-14 18:24:00,87.8,72.7,29.94,East,90,2.4,2.4,61,0.00,,---,0.00,VWS V13.01,2013-04-14 22:24:00,
2013-04-14 18:29:00,87.2,72.1,29.94,SE,135,8.2,8.2,61,0.00,,---,0.00,VWS V13.01,2013-04-14 22:29:00,
2013-04-14 18:34:00,-20.9,-30.1,29.94,SE,135,1.5,1.5,61,0.00,,---,0.00,VWS V13.01,2013-04-14 22:34:00,
2013-04-14 18:39:00,86.3,71.3,29.94,NE,45,3.3,3.3,61,0.00,,---,0.00,VWS V13.01,2013-04-14 22:39:00,
2013-04-14 18:44:00,85.8,70.8,29.94,ENE,68,2.4,2.4,61,0.00,,---,0.00,VWS V13.01,2013-04-14 22:44:00,
2013-04-14 18:49:00,85.6,71.1,29.95,East,90,2.9,2.9,62,0.00,,---,0.00,VWS V13.01,2013-04-14 22:49:00,
2013-04-14 18:54:00,85.2,70.7,29.95,SE,135,3.3,3.3,62,0.00,,---,0.00,VWS V13.01,2013-04-14 22:54:00,
2013-04-14 18:59:00,84.9,70.4,29.95,ENE,68,10.5,10.5,62,0.00,,---,0.00,VWS V13.01,2013-04-14 22:59:00,
2013-04-14 19:04:00,84.7,70.2,29.95,ENE,68,3.5,3.5,62,0.00,,---,0.00,VWS V13.01,2013-04-14 23:04:00,
2013-04-14 19:09:00,84.5,70.5,29.95,SE,135,2.0,2.0,63,0.00,,---,0.00,VWS V13.01,2013-04-14 23:09:00,
2013-04-14 19:13:00,84.3,70.3,29.96,SE,135,2.2,2.2,63,0.00,,---,0.00,VWS V13.01,2013-04-14 23:13:00,
2013-04-14 19:18:00,84.3,70.8,29.96,ENE,68,0.0,0.0,64,0.00,,---,0.00,VWS V13.01,2013-04-14 23:18:00,
2013-04-14 19:23:00,84.2,70.7,29.97,SSE,158,8.0,8.0,64,0.00,,---,0.00,VWS V13.01,2013-04-14 23:23:00,
2013-04-14 19:28:00,84.0,70.5,29.97,SSE,158,5.3,5.3,64,0.00,,---,0.00,VWS V13.01,2013-04-14 23:28:00,
2013-04-14 19:33:00,84.0,70.5,29.98,NE,45,0.0,0.0,64,0.00,,---,0.00,VWS V13.01,2013-04-14 23:33:00,
2013-04-14 19:38:00,83.8,70.3,29.98,East,90,1.5,1.5,64,0.02,,---,0.02,VWS V13.01,2013-04-14 23:38:00,
2013-04-14 19:43:00,83.8,70.3,29.98,NE,45,0.0,0.0,64,0.02,,---,0.02,VWS V13.01,2013-04-14 23:43:00,
2013-04-14 19:48:00,83.8,70.3,29.98,NNE,22,2.9,2.9,64,0.02,,---,0.02,VWS V13.01,2013-04-14 23:48:00,
2013-04-14 19:53:00,83.6,70.1,29.98,SE,135,1.3,1.3,64,0.02,,---,0.02,VWS V13.01,2013-04-14 23:53:00,
2013-04-14 19:58:00,83.4,70.4,29.98,East,90,2.4,2.4,65,0.02,,---,0.02,VWS V13.01,2013-04-14 23:58:00,
2013-04-14 20:03:00,83.4,70.4,29.98,ESE,112,5.1,5.1,65,0.02,,---,0.02,VWS V13.01,2013-04-15 00:03:00,
2013-04-14 20:08:00,83.1,70.1,29.98,SE,135,3.8,3.8,65,0.02,,---,0.02,VWS V13.01,2013-04-15 00:08:00,
2013-04-14 20:13:00,83.1,70.6,29.99,ENE,68,2.4,2.4,66,0.02,,---,0.02,VWS V13.01,2013-04-15 00:13:00,
2013-04-14 20:18:00,83.1,70.6,29.99,ESE,112,0.0,0.0,66,0.02,,---,0.02,VWS V13.01,2013-04-15 00:18:00,
2013-04-14 20:23:00,83.1,70.6,29.99,ESE,112,3.5,3.5,66,0.02,,---,0.02,VWS V13.01,2013-04-15 00:23:00,
2013-04-14 20:28:00,83.1,70.6,29.99,East,90,2.2,2.2,66,0.02,,---,0.02,VWS V13.01,2013-04-15 00:28:00,
2013-04-14 20:34:00,83.1,71.0,30.00,East,90,5.3,5.3,67,0.02,,---,0.02,VWS V13.01,2013-04-15 00:34:00,
2013-04-14 20:39:00,82.9,71.3,30.00,East,90,5.1,5.1,68,0.00,,---,0.02,VWS V13.01,2013-04-15 00:39:00,
2013-04-14 20:44:00,82.9,71.7,29.99,SE,135,0.0,0.0,69,0.00,,---,0.02,VWS V13.01,2013-04-15 00:44:00,
2013-04-14 20:49:00,82.7,71.5,29.99,ESE,112,0.0,0.0,69,0.00,,---,0.02,VWS V13.01,2013-04-15 00:49:00,
2013-04-14 20:54:00,82.5,71.3,29.99,East,90,0.0,0.0,69,0.00,,---,0.02,VWS V13.01,2013-04-15 00:54:00,
2013-04-14 20:59:00,82.5,71.3,30.00,ENE,68,8.5,8.5,69,0.00,,---,0.02,VWS V13.01,2013-04-15 00:59:00,
2013-04-14 21:05:00,82.5,71.3,30.00,East,90,5.8,5.8,69,0.00,,---,0.02,VWS V13.01,2013-04-15 01:05:00,
2013-04-14 21:10:00,82.2,71.4,30.00,East,90,0.0,0.0,70,0.00,,---,0.02,VWS V13.01,2013-04-15 01:10:00,
2013-04-14 21:15:00,82.2,71.4,30.00,ESE,112,2.2,2.2,70,0.00,,---,0.02,VWS V13.01,2013-04-15 01:15:00,
2013-04-14 21:20:00,82.2,71.9,30.00,NE,45,2.0,2.0,71,0.00,,---,0.02,VWS V13.01,2013-04-15 01:20:00,
2013-04-14 21:25:00,82.2,71.9,30.00,ENE,68,1.7,1.7,71,0.00,,---,0.02,VWS V13.01,2013-04-15 01:25:00,
2013-04-14 21:30:00,82.0,72.1,30.00,SE,135,8.7,8.7,72,0.00,,---,0.02,VWS V13.01,2013-04-15 01:30:00,
2013-04-14 21:34:00,81.8,71.9,30.00,ESE,112,5.8,5.8,72,0.00,,---,0.02,VWS V13.01,2013-04-15 01:34:00,
2013-04-14 21:39:00,81.6,72.1,30.00,ESE,112,6.9,6.9,73,0.00,,---,0.02,VWS V13.01,2013-04-15 01:39:00,
2013-04-14 21:44:00,81.6,72.5,30.01,SE,135,5.8,5.8,74,0.00,,---,0.02,VWS V13.01,2013-04-15 01:44:00,
2013-04-14 21:49:00,81.6,72.5,30.00,East,90,2.2,2.2,74,0.00,,---,0.02,VWS V13.01,2013-04-15 01:49:00,
2013-04-14 21:54:00,81.3,72.6,30.00,South,180,2.9,2.9,75,0.00,,---,0.02,VWS V13.01,2013-04-15 01:54:00,
2013-04-14 21:59:00,81.3,72.6,30.00,ENE,68,0.0,0.0,75,0.00,,---,0.02,VWS V13.01,2013-04-15 01:59:00,
2013-04-14 22:04:00,81.1,72.4,30.00,ENE,68,1.1,1.1,75,0.00,,---,0.02,VWS V13.01,2013-04-15 02:04:00,
2013-04-14 22:09:00,81.1,72.4,30.00,SSE,158,0.0,0.0,75,0.00,,---,0.02,VWS V13.01,2013-04-15 02:09:00,
2013-04-14 22:14:00,81.1,72.8,30.00,East,90,0.0,0.0,76,0.00,,---,0.02,VWS V13.01,2013-04-15 02:14:00,
2013-04-14 22:19:00,81.1,72.8,30.00,SSE,158,0.8,0.8,76,0.00,,---,0.02,VWS V13.01,2013-04-15 02:19:00,
2013-04-14 22:24:00,81.1,72.8,30.00,SE,135,1.7,1.7,76,0.00,,---,0.02,VWS V13.01,2013-04-15 02:24:00,
2013-04-14 22:29:00,80.7,72.4,29.99,SE,135,4.0,4.0,76,0.00,,---,0.02,VWS V13.01,2013-04-15 02:29:00,
2013-04-14 22:34:00,80.7,72.4,29.99,SE,135,0.0,0.0,76,0.00,,---,0.02,VWS V13.01,2013-04-15 02:34:00,
2013-04-14 22:39:00,80.7,72.4,29.99,SE,135,2.4,2.4,76,0.00,,---,0.02,VWS V13.01,2013-04-15 02:39:00,
2013-04-14 22:44:00,80.6,72.3,29.99,ESE,112,3.1,3.1,76,0.00,,---,0.02,VWS V13.01,2013-04-15 02:44:00,
2013-04-14 22:49:00,80.4,72.2,29.99,East,90,0.0,0.0,76,0.00,,---,0.02,VWS V13.01,2013-04-15 02:49:00,
2013-04-14 22:54:00,80.4,72.2,29.99,South,180,0.6,0.6,76,0.00,,---,0.02,VWS V13.01,2013-04-15 02:54:00,
2013-04-14 22:59:00,80.4,72.2,29.98,East,90,2.0,2.0,76,0.00,,---,0.02,VWS V13.01,2013-04-15 02:59:00,
2013-04-14 23:04:00,80.4,72.2,29.99,SE,135,0.0,0.0,76,0.00,,---,0.02,VWS V13.01,2013-04-15 03:04:00,
2013-04-14 23:09:00,80.4,72.2,29.99,SE,135,1.7,1.7,76,0.00,,---,0.02,VWS V13.01,2013-04-15 03:09:00,
2013-04-14 23:14:00,80.2,71.9,29.98,SE,135,6.0,6.0,76,0.00,,---,0.02,VWS V13.01,2013-04-15 03:14:00,
2013-04-14 23:19:00,80.2,71.9,29.98,SE,135,4.6,4.6,76,0.00,,---,0.02,VWS V13.01,2013-04-15 03:19:00,
2013-04-14 23:24:00,80.2,71.9,29.98,SE,135,3.5,3.5,76,0.00,,---,0.02,VWS V13.01,2013-04-15 03:24:00,
2013-04-14 23:29:00,80.0,71.4,29.98,East,90,1.7,1.7,75,0.00,,---,0.02,VWS V13.01,2013-04-15 03:29:00,
2013-04-14 23:34:00,79.8,71.2,29.98,ESE,112,2.0,2.0,75,0.00,,---,0.02,VWS V13.01,2013-04-15 03:34:00,
2013-04-14 23:39:00,79.8,71.2,29.97,SE,135,4.0,4.0,75,0.00,,---,0.02,VWS V13.01,2013-04-15 03:39:00,
2013-04-14 23:44:00,79.8,71.2,29.97,ESE,112,0.0,0.0,75,0.00,,---,0.02,VWS V13.01,2013-04-15 03:44:00,
2013-04-14 23:49:00,79.8,71.2,29.97,SSE,158,4.6,4.6,75,0.00,,---,0.02,VWS V13.01,2013-04-15 03:49:00,
2013-04-14 23:54:00,79.8,71.2,29.97,East,90,4.4,4.4,75,0.00,,---,0.02,VWS V13.01,2013-04-15 03:54:00,
2013-04-14 23:59:00,79.7,71.1,29.97,SE,135,4.6,4.6,75,0.00,,---,0.02,VWS V13.01,2013-04-15 03:59:00,